Regional Weather Roundup
Issued by NWS

Home | Current Version | Previous Version | Graphics & Text | Print | Product List | Glossary On
Versions: 1 2 3 4 5 6 7 8 9 10 11 12 13 14 15 16 17 18 19 20 21 22 23 24 25 26 27
000
ASUS45 KCYS 222310
RWRWY

WYOMING REGIONAL WEATHER ROUNDUP
NATIONAL WEATHER SERVICE CHEYENNE WY
500 PM MDT SUN APR 22 2018

NOTE:  "FAIR" INDICATES FEW OR NO CLOUDS BELOW 12,000 FEET
WITH NO SIGNIFICANT WEATHER AND/OR OBSTRUCTIONS TO VISIBILITY.

WYZ001-230000-
YELLOWSTONE NATIONAL PARK

CITY           SKY/WX    TMP DP  RH WIND       PRES   REMARKS
LK YELLOWSTONE   N/A     54  21  27 W10       30.14F
W YELLOWSTONE  NOT AVBL

$$
WYZ002>013-054>058-071-098>099-230000-
NORTHERN WYOMING

CITY           SKY/WX    TMP DP  RH WIND       PRES   REMARKS
JACKSON        CLOUDY    64  26  23 S13       30.06F
CODY           FAIR      65  29  25 S7        30.02F
GREYBULL       FAIR      71  33  24 VRB5      29.96F
WORLAND        FAIR      73  31  21 NE9       29.95F
SHERIDAN       FAIR      69  37  30 MISG      30.01F
BUFFALO        FAIR      69  33  26 E7        30.03F
GILLETTE       PTSUNNY   68  37  32 E6        30.02F
HULETT         FAIR      68  36  30 E6        30.06F
NEWCASTLE      FAIR      68  32  26 SE6       30.05F

$$
WYZ014>020-022>026-101>103-230000-
CENTRAL WYOMING

CITY           SKY/WX    TMP DP  RH WIND       PRES   REMARKS
BIG PINEY      FAIR      64  17  16 MISG      30.08F
PINEDALE       MOCLDY    61  25  25 CALM      30.09F
DUBOIS         FAIR      59  19  21 W10G21    30.09S
LANDER         FAIR      70  29  21 E6        29.98F
RIVERTON       FAIR      69  25  19 VRB6      30.00F
CASPER         FAIR      68  33  27 S9        30.03F
DOUGLAS        FAIR      67  34  29 S6        30.05F

$$
WYZ021-027>030-104>119-230000-
SOUTHERN WYOMING

CITY           SKY/WX    TMP DP  RH WIND       PRES   REMARKS
EVANSTON       FAIR      66  22  18 W13G18    30.09F
KEMMERER       FAIR      64  14  14 W5        30.10S
FORT BRIDGER   CLOUDY    67  20  16 E5        30.11F
ROCK SPRINGS   FAIR      66   9  10 W12G20    30.08F
DIXON          FAIR      66  26  21 S8        30.12F
RAWLINS          N/A    N/A N/A N/A MISG      30.08F
SARATOGA       FAIR      64  19  17 W8        30.11S
LARAMIE        FAIR      62  30  29 VRB5      30.12F
CHEYENNE       FAIR      62  30  29 VRB6      30.11F
TORRINGTON     FAIR      64  37  36 SE6       30.07F
PINE BLUFFS    FAIR      61  30  31 CALM      30.10F

$$




USA.gov is the U.S. government's official web portal to all federal, state and local government web resources and services.